Year,Month,Day,Hour,Minute,Value (Times are PST for temperature in C)
2016,10,16,00,00,11.60
2016,10,16,00,01,11.60
2016,10,16,00,02,11.50
2016,10,16,00,03,11.50
2016,10,16,00,04,11.40
2016,10,16,00,05,11.40
2016,10,16,00,06,11.40
2016,10,16,00,07,11.30
2016,10,16,00,08,11.30
2016,10,16,00,09,11.20
2016,10,16,00,10,11.20
2016,10,16,00,11,11.20
2016,10,16,00,12,11.10
2016,10,16,00,13,11.10
2016,10,16,00,14,11.10
2016,10,16,00,15,11.10
2016,10,16,00,16,11.10
2016,10,16,00,17,11.10
2016,10,16,00,18,11.10
2016,10,16,00,19,11.10
2016,10,16,00,20,11.10
2016,10,16,00,21,11.10
2016,10,16,00,22,11.00
2016,10,16,00,23,10.90
2016,10,16,00,24,10.90
2016,10,16,00,25,10.80
2016,10,16,00,26,10.70
2016,10,16,00,27,10.70
2016,10,16,00,28,10.70
2016,10,16,00,29,10.60
2016,10,16,00,30,10.60
2016,10,16,00,31,10.60
2016,10,16,00,32,10.50
2016,10,16,00,33,10.50
2016,10,16,00,34,10.40
2016,10,16,00,35,10.40
2016,10,16,00,36,10.30
2016,10,16,00,37,10.20
2016,10,16,00,38,10.20
2016,10,16,00,39,10.30
2016,10,16,00,40,10.30
2016,10,16,00,41,10.30
2016,10,16,00,42,10.30
2016,10,16,00,43,10.30
2016,10,16,00,44,10.30
2016,10,16,00,45,10.40
2016,10,16,00,46,10.40
2016,10,16,00,47,10.30
2016,10,16,00,48,10.30
2016,10,16,00,49,10.40
2016,10,16,00,50,10.40
2016,10,16,00,51,10.50
2016,10,16,00,52,10.50
2016,10,16,00,53,10.50
2016,10,16,00,54,10.50
2016,10,16,00,55,10.50
2016,10,16,00,56,10.50
2016,10,16,00,57,10.50
2016,10,16,00,58,10.50
2016,10,16,00,59,10.50
2016,10,16,01,00,10.40
2016,10,16,01,01,10.30
2016,10,16,01,02,10.30
2016,10,16,01,03,10.20
2016,10,16,01,04,10.20
2016,10,16,01,05,10.20
2016,10,16,01,06,10.10
2016,10,16,01,07,10.00
2016,10,16,01,08,9.90
2016,10,16,01,09,9.90
2016,10,16,01,10,9.80
2016,10,16,01,11,9.80
2016,10,16,01,12,9.80
2016,10,16,01,13,9.80
2016,10,16,01,14,9.90
2016,10,16,01,15,9.90
2016,10,16,01,16,9.90
2016,10,16,01,17,9.90
2016,10,16,01,18,9.90
2016,10,16,01,19,9.90
2016,10,16,01,20,9.90
2016,10,16,01,21,9.90
2016,10,16,01,22,9.90
2016,10,16,01,23,9.90
2016,10,16,01,24,9.90
2016,10,16,01,25,9.90
2016,10,16,01,26,9.90
2016,10,16,01,27,9.90
2016,10,16,01,28,9.90
2016,10,16,01,29,9.80
2016,10,16,01,30,9.80
2016,10,16,01,31,9.70
2016,10,16,01,32,9.70
2016,10,16,01,33,9.70
2016,10,16,01,34,9.70
2016,10,16,01,35,9.60
2016,10,16,01,36,9.60
2016,10,16,01,37,9.60
2016,10,16,01,38,9.60
2016,10,16,01,39,9.60
2016,10,16,01,40,9.60
2016,10,16,01,41,9.60
2016,10,16,01,42,9.50
2016,10,16,01,43,9.50
2016,10,16,01,44,9.50
2016,10,16,01,45,9.40
2016,10,16,01,46,9.40
2016,10,16,01,47,9.30
2016,10,16,01,48,9.30
2016,10,16,01,49,9.30
2016,10,16,01,50,9.20
2016,10,16,01,51,9.20
2016,10,16,01,52,9.20
2016,10,16,01,53,9.20
2016,10,16,01,54,9.20
2016,10,16,01,55,9.20
2016,10,16,01,56,9.10
2016,10,16,01,57,9.00
2016,10,16,01,58,8.90
2016,10,16,01,59,8.90
2016,10,16,02,00,8.90
2016,10,16,02,01,8.90
2016,10,16,02,02,8.90
2016,10,16,02,03,8.90
2016,10,16,02,04,8.90
2016,10,16,02,05,8.90
2016,10,16,02,06,8.90
2016,10,16,02,07,8.90
2016,10,16,02,08,8.80
2016,10,16,02,09,8.80
2016,10,16,02,10,8.80
2016,10,16,02,11,8.80
2016,10,16,02,12,8.80
2016,10,16,02,13,8.80
2016,10,16,02,14,8.80
2016,10,16,02,15,8.80
2016,10,16,02,16,8.80
2016,10,16,02,17,8.80
2016,10,16,02,18,8.70
2016,10,16,02,19,8.70
2016,10,16,02,20,8.70
2016,10,16,02,21,8.70
2016,10,16,02,22,8.70
2016,10,16,02,23,8.60
2016,10,16,02,24,8.60
2016,10,16,02,25,8.60
2016,10,16,02,26,8.60
2016,10,16,02,27,8.60
2016,10,16,02,28,8.60
2016,10,16,02,29,8.60
2016,10,16,02,30,8.60
2016,10,16,02,31,8.60
2016,10,16,02,32,8.60
2016,10,16,02,33,8.60
2016,10,16,02,34,8.60
2016,10,16,02,35,8.60
2016,10,16,02,36,8.60
2016,10,16,02,37,8.60
2016,10,16,02,38,8.60
2016,10,16,02,39,8.60
2016,10,16,02,40,8.60
2016,10,16,02,41,8.60
2016,10,16,02,42,8.60
2016,10,16,02,43,8.60
2016,10,16,02,44,8.60
2016,10,16,02,45,8.60
2016,10,16,02,46,8.60
2016,10,16,02,47,8.60
2016,10,16,02,48,8.50
2016,10,16,02,49,8.50
2016,10,16,02,50,8.50
2016,10,16,02,51,8.50
2016,10,16,02,52,8.50
2016,10,16,02,53,8.50
2016,10,16,02,54,8.40
2016,10,16,02,55,8.40
2016,10,16,02,56,8.40
2016,10,16,02,57,8.40
2016,10,16,02,58,8.40
2016,10,16,02,59,8.40
2016,10,16,03,00,8.40
2016,10,16,03,01,8.30
2016,10,16,03,02,8.30
2016,10,16,03,03,8.30
2016,10,16,03,04,8.30
2016,10,16,03,05,8.30
2016,10,16,03,06,8.30
2016,10,16,03,07,8.30
2016,10,16,03,08,8.30
2016,10,16,03,09,8.30
2016,10,16,03,10,8.40
2016,10,16,03,11,8.40
2016,10,16,03,12,8.40
2016,10,16,03,13,8.40
2016,10,16,03,14,8.40
2016,10,16,03,15,8.30
2016,10,16,03,16,8.30
2016,10,16,03,17,8.30
2016,10,16,03,18,8.30
2016,10,16,03,19,8.30
2016,10,16,03,20,8.30
2016,10,16,03,21,8.30
2016,10,16,03,22,8.30
2016,10,16,03,23,8.30
2016,10,16,03,24,8.30
2016,10,16,03,25,8.30
2016,10,16,03,26,8.30
2016,10,16,03,27,8.30
2016,10,16,03,28,8.40
2016,10,16,03,29,8.40
2016,10,16,03,30,8.30
2016,10,16,03,31,8.30
2016,10,16,03,32,8.30
2016,10,16,03,33,8.30
2016,10,16,03,34,8.30
2016,10,16,03,35,8.30
2016,10,16,03,36,8.30
2016,10,16,03,37,8.30
2016,10,16,03,38,8.30
2016,10,16,03,39,8.20
2016,10,16,03,40,8.20
2016,10,16,03,41,8.20
2016,10,16,03,42,8.20
2016,10,16,03,43,8.20
2016,10,16,03,44,8.20
2016,10,16,03,45,8.20
2016,10,16,03,46,8.20
2016,10,16,03,47,8.20
2016,10,16,03,48,8.20
2016,10,16,03,49,8.20
2016,10,16,03,50,8.20
2016,10,16,03,51,8.20
2016,10,16,03,52,8.20
2016,10,16,03,53,8.20
2016,10,16,03,54,8.20
2016,10,16,03,55,8.30
2016,10,16,03,56,8.30
2016,10,16,03,57,8.30
2016,10,16,03,58,8.40
2016,10,16,03,59,8.40
2016,10,16,04,00,8.40
2016,10,16,04,01,8.40
2016,10,16,04,02,8.50
2016,10,16,04,03,8.50
2016,10,16,04,04,8.50
2016,10,16,04,05,8.60
2016,10,16,04,06,8.60
2016,10,16,04,07,8.60
2016,10,16,04,08,8.60
2016,10,16,04,09,8.60
2016,10,16,04,10,8.70
2016,10,16,04,11,8.70
2016,10,16,04,12,8.70
2016,10,16,04,13,8.70
2016,10,16,04,14,8.80
2016,10,16,04,15,8.80
2016,10,16,04,16,8.80
2016,10,16,04,17,8.80
2016,10,16,04,18,8.80
2016,10,16,04,19,8.80
2016,10,16,04,20,8.80
2016,10,16,04,21,8.80
2016,10,16,04,22,8.80
2016,10,16,04,23,8.80
2016,10,16,04,24,8.90
2016,10,16,04,25,8.90
2016,10,16,04,26,8.90
2016,10,16,04,27,9.00
2016,10,16,04,28,9.00
2016,10,16,04,29,9.10
2016,10,16,04,30,9.10
2016,10,16,04,31,9.10
2016,10,16,04,32,9.10
2016,10,16,04,33,9.20
2016,10,16,04,34,9.20
2016,10,16,04,35,9.20
2016,10,16,04,36,9.20
2016,10,16,04,37,9.20
2016,10,16,04,38,9.20
2016,10,16,04,39,9.20
2016,10,16,04,40,9.30
2016,10,16,04,41,9.40
2016,10,16,04,42,9.60
2016,10,16,04,43,9.80
2016,10,16,04,44,10.00
2016,10,16,04,45,10.20
2016,10,16,04,46,10.20
2016,10,16,04,47,10.30
2016,10,16,04,48,10.40
2016,10,16,04,49,10.40
2016,10,16,04,50,10.40
2016,10,16,04,51,10.50
2016,10,16,04,52,10.50
2016,10,16,04,53,10.60
2016,10,16,04,54,10.60
2016,10,16,04,55,10.70
2016,10,16,04,56,10.70
2016,10,16,04,57,10.70
2016,10,16,04,58,10.80
2016,10,16,04,59,10.80
2016,10,16,05,00,10.80
2016,10,16,05,01,10.80
2016,10,16,05,02,10.80
2016,10,16,05,03,10.80
2016,10,16,05,04,10.80
2016,10,16,05,05,10.80
2016,10,16,05,06,10.80
2016,10,16,05,07,10.80
2016,10,16,05,08,10.80
2016,10,16,05,09,10.70
2016,10,16,05,10,10.70
2016,10,16,05,11,10.70
2016,10,16,05,12,10.70
2016,10,16,05,13,10.70
2016,10,16,05,14,10.70
2016,10,16,05,15,10.70
2016,10,16,05,16,10.70
2016,10,16,05,17,10.70
2016,10,16,05,18,10.70
2016,10,16,05,19,10.70
2016,10,16,05,20,10.70
2016,10,16,05,21,10.70
2016,10,16,05,22,10.70
2016,10,16,05,23,10.70
2016,10,16,05,24,10.70
2016,10,16,05,25,10.70
2016,10,16,05,26,10.70
2016,10,16,05,27,10.70
2016,10,16,05,28,10.70
2016,10,16,05,29,10.70
2016,10,16,05,30,10.70
2016,10,16,05,31,10.70
2016,10,16,05,32,10.70
2016,10,16,05,33,10.70
2016,10,16,05,34,10.70
2016,10,16,05,35,10.70
2016,10,16,05,36,10.70
2016,10,16,05,37,10.70
2016,10,16,05,38,10.70
2016,10,16,05,39,10.70
2016,10,16,05,40,10.70
2016,10,16,05,41,10.70
2016,10,16,05,42,10.70
2016,10,16,05,43,10.70
2016,10,16,05,44,10.70
2016,10,16,05,45,10.70
2016,10,16,05,46,10.70
2016,10,16,05,47,10.70
2016,10,16,05,48,10.70
2016,10,16,05,49,10.70
2016,10,16,05,50,10.70
2016,10,16,05,51,10.70
2016,10,16,05,52,10.70
2016,10,16,05,53,10.70
2016,10,16,05,54,10.70
2016,10,16,05,55,10.70
2016,10,16,05,56,10.70
2016,10,16,05,57,10.70
2016,10,16,05,58,10.70
2016,10,16,05,59,10.70
2016,10,16,06,00,10.60
2016,10,16,06,01,10.60
2016,10,16,06,02,10.60
2016,10,16,06,03,10.60
2016,10,16,06,04,10.60
2016,10,16,06,05,10.60
2016,10,16,06,06,10.60
2016,10,16,06,07,10.60
2016,10,16,06,08,10.60
2016,10,16,06,09,10.60
2016,10,16,06,10,10.60
2016,10,16,06,11,10.50
2016,10,16,06,12,10.50
2016,10,16,06,13,10.50
2016,10,16,06,14,10.50
2016,10,16,06,15,10.50
2016,10,16,06,16,10.40
2016,10,16,06,17,10.40
2016,10,16,06,18,10.40
2016,10,16,06,19,10.40
2016,10,16,06,20,10.40
2016,10,16,06,21,10.40
2016,10,16,06,22,10.40
2016,10,16,06,23,10.40
2016,10,16,06,24,10.40
2016,10,16,06,25,10.40
2016,10,16,06,26,10.40
2016,10,16,06,27,10.30
2016,10,16,06,28,10.30
2016,10,16,06,29,10.30
2016,10,16,06,30,10.30
2016,10,16,06,31,10.30
2016,10,16,06,32,10.30
2016,10,16,06,33,10.30
2016,10,16,06,34,10.30
2016,10,16,06,35,10.20
2016,10,16,06,36,10.20
2016,10,16,06,37,10.20
2016,10,16,06,38,10.20
2016,10,16,06,39,10.20
2016,10,16,06,40,10.20
2016,10,16,06,41,10.20
2016,10,16,06,42,10.20
2016,10,16,06,43,10.20
2016,10,16,06,44,10.10
2016,10,16,06,45,10.10
2016,10,16,06,46,10.10
2016,10,16,06,47,10.10
2016,10,16,06,48,10.10
2016,10,16,06,49,10.10
2016,10,16,06,50,10.10
2016,10,16,06,51,10.10
2016,10,16,06,52,10.10
2016,10,16,06,53,10.20
2016,10,16,06,54,10.20
2016,10,16,06,55,10.20
2016,10,16,06,56,10.30
2016,10,16,06,57,10.30
2016,10,16,06,58,10.40
2016,10,16,06,59,10.40
2016,10,16,07,00,10.50
2016,10,16,07,01,10.60
2016,10,16,07,02,10.70
2016,10,16,07,03,10.70
2016,10,16,07,04,10.80
2016,10,16,07,05,10.80
2016,10,16,07,06,10.80
2016,10,16,07,07,10.80
2016,10,16,07,08,10.80
2016,10,16,07,09,10.80
2016,10,16,07,10,10.80
2016,10,16,07,11,10.80
2016,10,16,07,12,10.80
2016,10,16,07,13,10.80
2016,10,16,07,14,10.80
2016,10,16,07,15,10.80
2016,10,16,07,16,10.80
2016,10,16,07,17,10.80
2016,10,16,07,18,10.80
2016,10,16,07,19,10.80
2016,10,16,07,20,10.80
2016,10,16,07,21,10.80
2016,10,16,07,22,10.80
2016,10,16,07,23,10.70
2016,10,16,07,24,10.70
2016,10,16,07,25,10.70
2016,10,16,07,26,10.70
2016,10,16,07,27,10.70
2016,10,16,07,28,10.70
2016,10,16,07,29,10.70
2016,10,16,07,30,10.70
2016,10,16,07,31,10.70
2016,10,16,07,32,10.70
2016,10,16,07,33,10.70
2016,10,16,07,34,10.70
2016,10,16,07,35,10.70
2016,10,16,07,36,10.70
2016,10,16,07,37,10.70
2016,10,16,07,38,10.70
2016,10,16,07,39,10.70
2016,10,16,07,40,10.70
2016,10,16,07,41,10.70
2016,10,16,07,42,10.70
2016,10,16,07,43,10.70
2016,10,16,07,44,10.80
2016,10,16,07,45,10.80
2016,10,16,07,46,10.80
2016,10,16,07,47,10.80
2016,10,16,07,48,10.80
2016,10,16,07,49,10.80
2016,10,16,07,50,10.80
2016,10,16,07,51,10.80
2016,10,16,07,52,10.80
2016,10,16,07,53,10.80
2016,10,16,07,54,10.80
2016,10,16,07,55,10.80
2016,10,16,07,56,10.90
2016,10,16,07,57,10.90
2016,10,16,07,58,10.90
2016,10,16,07,59,10.90
2016,10,16,08,00,10.90
2016,10,16,08,01,10.90
2016,10,16,08,02,10.90
2016,10,16,08,03,10.90
2016,10,16,08,04,10.90
2016,10,16,08,05,10.90
2016,10,16,08,06,10.90
2016,10,16,08,07,10.90
2016,10,16,08,08,11.00
2016,10,16,08,09,11.00
2016,10,16,08,10,11.00
2016,10,16,08,11,11.00
2016,10,16,08,12,11.00
2016,10,16,08,13,11.00
2016,10,16,08,14,11.00
2016,10,16,08,15,11.00
2016,10,16,08,16,11.00
2016,10,16,08,17,10.90
2016,10,16,08,18,10.90
2016,10,16,08,19,10.90
2016,10,16,08,20,10.90
2016,10,16,08,21,10.90
2016,10,16,08,22,10.90
2016,10,16,08,23,10.90
2016,10,16,08,24,10.90
2016,10,16,08,25,10.90
2016,10,16,08,26,10.90
2016,10,16,08,27,10.90
2016,10,16,08,28,10.90
2016,10,16,08,29,10.90
2016,10,16,08,30,10.90
2016,10,16,08,31,10.90
2016,10,16,08,32,10.90
2016,10,16,08,33,10.90
2016,10,16,08,34,10.90
2016,10,16,08,35,10.90
2016,10,16,08,36,10.90
2016,10,16,08,37,10.90
2016,10,16,08,38,10.90
2016,10,16,08,39,10.90
2016,10,16,08,40,10.90
2016,10,16,08,41,10.90
2016,10,16,08,42,10.90
2016,10,16,08,43,10.90
2016,10,16,08,44,10.90
2016,10,16,08,45,10.90
2016,10,16,08,46,10.90
2016,10,16,08,47,10.90
2016,10,16,08,48,10.90
2016,10,16,08,49,10.90
2016,10,16,08,50,10.90
2016,10,16,08,51,10.90
2016,10,16,08,52,10.90
2016,10,16,08,53,10.90
2016,10,16,08,54,10.90
2016,10,16,08,55,10.90
2016,10,16,08,56,10.90
2016,10,16,08,57,10.90
2016,10,16,08,58,10.90
2016,10,16,08,59,10.90
2016,10,16,09,00,10.90
2016,10,16,09,01,10.80
2016,10,16,09,02,10.80
2016,10,16,09,03,10.80
2016,10,16,09,04,10.80
2016,10,16,09,05,10.80
2016,10,16,09,06,10.80
2016,10,16,09,07,10.80
2016,10,16,09,08,10.80
2016,10,16,09,09,10.80
2016,10,16,09,10,10.80
2016,10,16,09,11,10.80
2016,10,16,09,12,10.80
2016,10,16,09,13,10.80
2016,10,16,09,14,10.80
2016,10,16,09,15,10.80
2016,10,16,09,16,10.80
2016,10,16,09,17,10.80
2016,10,16,09,18,10.80
2016,10,16,09,19,10.80
2016,10,16,09,20,10.80
2016,10,16,09,21,10.80
2016,10,16,09,22,10.80
2016,10,16,09,23,10.80
2016,10,16,09,24,10.80
2016,10,16,09,25,10.90
2016,10,16,09,26,10.90
2016,10,16,09,27,10.90
2016,10,16,09,28,10.90
2016,10,16,09,29,10.90
2016,10,16,09,30,10.90
2016,10,16,09,31,10.90
2016,10,16,09,32,10.90
2016,10,16,09,33,10.90
2016,10,16,09,34,10.90
2016,10,16,09,35,10.90
2016,10,16,09,36,10.90
2016,10,16,09,37,10.90
2016,10,16,09,38,10.90
2016,10,16,09,39,10.90
2016,10,16,09,40,10.90
2016,10,16,09,41,10.90
2016,10,16,09,42,10.90
2016,10,16,09,43,10.90
2016,10,16,09,44,10.90
2016,10,16,09,45,10.90
2016,10,16,09,46,10.90
2016,10,16,09,47,10.90
2016,10,16,09,48,10.90
2016,10,16,09,49,10.90
2016,10,16,09,50,10.90
2016,10,16,09,51,10.90
2016,10,16,09,52,10.90
2016,10,16,09,53,10.90
2016,10,16,09,54,10.90
2016,10,16,09,55,10.90
2016,10,16,09,56,10.90
2016,10,16,09,57,10.90
2016,10,16,09,58,10.90
2016,10,16,09,59,10.90
2016,10,16,10,00,10.90
2016,10,16,10,01,10.90
2016,10,16,10,02,10.90
2016,10,16,10,03,10.90
2016,10,16,10,04,10.90
2016,10,16,10,05,10.90
2016,10,16,10,06,10.80
2016,10,16,10,07,10.80
2016,10,16,10,08,10.80
2016,10,16,10,09,10.80
2016,10,16,10,10,10.70
2016,10,16,10,11,10.70
2016,10,16,10,12,10.70
2016,10,16,10,13,10.70
2016,10,16,10,14,10.70
2016,10,16,10,15,10.70
2016,10,16,10,16,10.70
2016,10,16,10,17,10.70
2016,10,16,10,18,10.80
2016,10,16,10,19,10.80
2016,10,16,10,20,10.80
2016,10,16,10,21,10.80
2016,10,16,10,22,10.80
2016,10,16,10,23,10.80
2016,10,16,10,24,10.80
2016,10,16,10,25,10.80
2016,10,16,10,26,10.80
2016,10,16,10,27,10.80
2016,10,16,10,28,10.80
2016,10,16,10,29,10.80
2016,10,16,10,30,10.80
2016,10,16,10,31,10.80
2016,10,16,10,32,10.80
2016,10,16,10,33,10.80
2016,10,16,10,34,10.80
2016,10,16,10,35,10.80
2016,10,16,10,36,10.80
2016,10,16,10,37,10.80
2016,10,16,10,38,10.80
2016,10,16,10,39,10.80
2016,10,16,10,40,10.90
2016,10,16,10,41,10.90
2016,10,16,10,42,11.00
2016,10,16,10,43,11.00
2016,10,16,10,44,11.10
2016,10,16,10,45,11.10
2016,10,16,10,46,11.10
2016,10,16,10,47,11.10
2016,10,16,10,48,11.00
2016,10,16,10,49,11.00
2016,10,16,10,50,11.00
2016,10,16,10,51,11.00
2016,10,16,10,52,11.00
2016,10,16,10,53,11.00
2016,10,16,10,54,11.00
2016,10,16,10,55,11.00
2016,10,16,10,56,11.00
2016,10,16,10,57,11.00
2016,10,16,10,58,11.00
2016,10,16,10,59,11.00
2016,10,16,11,00,11.00
2016,10,16,11,01,11.10
2016,10,16,11,02,11.10
2016,10,16,11,03,11.10
2016,10,16,11,04,11.10
2016,10,16,11,05,11.10
2016,10,16,11,06,11.10
2016,10,16,11,07,11.10
2016,10,16,11,08,11.10
2016,10,16,11,09,11.20
2016,10,16,11,10,11.20
2016,10,16,11,11,11.20
2016,10,16,11,12,11.20
2016,10,16,11,13,11.20
2016,10,16,11,14,11.20
2016,10,16,11,15,11.30
2016,10,16,11,16,11.30
2016,10,16,11,17,11.30
2016,10,16,11,18,11.30
2016,10,16,11,19,11.30
2016,10,16,11,20,11.30
2016,10,16,11,21,11.30
2016,10,16,11,22,11.40
2016,10,16,11,23,11.40
2016,10,16,11,24,11.40
2016,10,16,11,25,11.40
2016,10,16,11,26,11.50
2016,10,16,11,27,11.50
2016,10,16,11,28,11.50
2016,10,16,11,29,11.60
2016,10,16,11,30,11.60
2016,10,16,11,31,11.60
2016,10,16,11,32,11.60
2016,10,16,11,33,11.60
2016,10,16,11,34,11.60
2016,10,16,11,35,11.60
2016,10,16,11,36,11.60
2016,10,16,11,37,11.60
2016,10,16,11,38,11.60
2016,10,16,11,39,11.60
2016,10,16,11,40,11.60
2016,10,16,11,41,11.60
2016,10,16,11,42,11.60
2016,10,16,11,43,11.60
2016,10,16,11,44,11.60
2016,10,16,11,45,11.60
2016,10,16,11,46,11.60
2016,10,16,11,47,11.60
2016,10,16,11,48,11.60
2016,10,16,11,49,11.50
2016,10,16,11,50,11.60
2016,10,16,11,51,11.60
2016,10,16,11,52,11.60
2016,10,16,11,53,11.60
2016,10,16,11,54,11.60
2016,10,16,11,55,11.60
2016,10,16,11,56,11.60
2016,10,16,11,57,11.50
2016,10,16,11,58,11.50
2016,10,16,11,59,11.50
2016,10,16,12,00,11.50
2016,10,16,12,01,11.50
2016,10,16,12,02,11.50
2016,10,16,12,03,11.50
2016,10,16,12,04,11.50
2016,10,16,12,05,11.50
2016,10,16,12,06,11.40
2016,10,16,12,07,11.40
2016,10,16,12,08,11.40
2016,10,16,12,09,11.40
2016,10,16,12,10,11.40
2016,10,16,12,11,11.30
2016,10,16,12,12,11.30
2016,10,16,12,13,11.30
2016,10,16,12,14,11.30
2016,10,16,12,15,11.30
2016,10,16,12,16,11.30
2016,10,16,12,17,11.30
2016,10,16,12,18,11.30
2016,10,16,12,19,11.30
2016,10,16,12,20,11.30
2016,10,16,12,21,11.40
2016,10,16,12,22,11.40
2016,10,16,12,23,11.50
2016,10,16,12,24,11.60
2016,10,16,12,25,11.70
2016,10,16,12,26,11.80
2016,10,16,12,27,11.80
2016,10,16,12,28,11.90
2016,10,16,12,29,12.00
2016,10,16,12,30,12.00
2016,10,16,12,31,12.10
2016,10,16,12,32,12.20
2016,10,16,12,33,12.20
2016,10,16,12,34,12.30
2016,10,16,12,35,12.30
2016,10,16,12,36,12.30
2016,10,16,12,37,12.40
2016,10,16,12,38,12.40
2016,10,16,12,39,12.30
2016,10,16,12,40,12.30
2016,10,16,12,41,12.30
2016,10,16,12,42,12.30
2016,10,16,12,43,12.20
2016,10,16,12,44,12.20
2016,10,16,12,45,12.20
2016,10,16,12,46,12.10
2016,10,16,12,47,12.10
2016,10,16,12,48,12.10
2016,10,16,12,49,12.20
2016,10,16,12,50,12.20
2016,10,16,12,51,12.20
2016,10,16,12,52,12.20
2016,10,16,12,53,12.20
2016,10,16,12,54,12.20
2016,10,16,12,55,12.20
2016,10,16,12,56,12.30
2016,10,16,12,57,12.20
2016,10,16,12,58,12.20
2016,10,16,12,59,12.20
2016,10,16,13,00,12.20
2016,10,16,13,01,12.20
2016,10,16,13,02,12.20
2016,10,16,13,03,12.30
2016,10,16,13,04,12.30
2016,10,16,13,05,12.20
2016,10,16,13,06,12.20
2016,10,16,13,07,12.20
2016,10,16,13,08,12.10
2016,10,16,13,09,12.00
2016,10,16,13,10,11.90
2016,10,16,13,11,11.80
2016,10,16,13,12,11.80
2016,10,16,13,13,11.70
2016,10,16,13,14,11.70
2016,10,16,13,15,11.70
2016,10,16,13,16,11.60
2016,10,16,13,17,11.60
2016,10,16,13,18,11.60
2016,10,16,13,19,11.60
2016,10,16,13,20,11.50
2016,10,16,13,21,11.50
2016,10,16,13,22,11.50
2016,10,16,13,23,11.40
2016,10,16,13,24,11.40
2016,10,16,13,25,11.40
2016,10,16,13,26,11.40
2016,10,16,13,27,11.40
2016,10,16,13,28,11.40
2016,10,16,13,29,11.40
2016,10,16,13,30,11.40
2016,10,16,13,31,11.40
2016,10,16,13,32,11.40
2016,10,16,13,33,11.50
2016,10,16,13,34,11.50
2016,10,16,13,35,11.60
2016,10,16,13,36,11.70
2016,10,16,13,37,11.80
2016,10,16,13,38,11.80
2016,10,16,13,39,11.90
2016,10,16,13,40,12.00
2016,10,16,13,41,12.00
2016,10,16,13,42,12.10
2016,10,16,13,43,12.20
2016,10,16,13,44,12.20
2016,10,16,13,45,12.20
2016,10,16,13,46,12.30
2016,10,16,13,47,12.30
2016,10,16,13,48,12.30
2016,10,16,13,49,12.40
2016,10,16,13,50,12.40
2016,10,16,13,51,12.40
2016,10,16,13,52,12.40
2016,10,16,13,53,12.50
2016,10,16,13,54,12.50
2016,10,16,13,55,12.50
2016,10,16,13,56,12.50
2016,10,16,13,57,12.60
2016,10,16,13,58,12.60
2016,10,16,13,59,12.60
2016,10,16,14,00,12.60
2016,10,16,14,01,12.70
2016,10,16,14,02,12.70
2016,10,16,14,03,12.70
2016,10,16,14,04,12.80
2016,10,16,14,05,12.80
2016,10,16,14,06,12.80
2016,10,16,14,07,12.90
2016,10,16,14,08,12.90
2016,10,16,14,09,12.90
2016,10,16,14,10,13.00
2016,10,16,14,11,13.00
2016,10,16,14,12,13.10
2016,10,16,14,13,13.10
2016,10,16,14,14,13.10
2016,10,16,14,15,13.20
2016,10,16,14,16,13.20
2016,10,16,14,17,13.20
2016,10,16,14,18,13.30
2016,10,16,14,19,13.30
2016,10,16,14,20,13.40
2016,10,16,14,21,13.40
2016,10,16,14,22,13.50
2016,10,16,14,23,13.60
2016,10,16,14,24,13.60
2016,10,16,14,25,13.70
2016,10,16,14,26,13.70
2016,10,16,14,27,13.80
2016,10,16,14,28,13.80
2016,10,16,14,29,13.90
2016,10,16,14,30,14.00
2016,10,16,14,31,14.10
2016,10,16,14,32,14.20
2016,10,16,14,33,14.30
2016,10,16,14,34,14.40
2016,10,16,14,35,14.50
2016,10,16,14,36,14.50
2016,10,16,14,37,14.60
2016,10,16,14,38,14.70
2016,10,16,14,39,14.70
2016,10,16,14,40,14.80
2016,10,16,14,41,14.80
2016,10,16,14,42,14.90
2016,10,16,14,43,14.90
2016,10,16,14,44,14.90
2016,10,16,14,45,14.90
2016,10,16,14,46,14.90
2016,10,16,14,47,14.90
2016,10,16,14,48,14.80
2016,10,16,14,49,14.80
2016,10,16,14,50,14.70
2016,10,16,14,51,14.60
2016,10,16,14,52,14.50
2016,10,16,14,53,14.50
2016,10,16,14,54,14.30
2016,10,16,14,55,14.20
2016,10,16,14,56,14.10
2016,10,16,14,57,14.10
2016,10,16,14,58,14.00
2016,10,16,14,59,14.00
2016,10,16,15,00,14.00
2016,10,16,15,01,13.90
2016,10,16,15,02,13.90
2016,10,16,15,03,13.90
2016,10,16,15,04,13.90
2016,10,16,15,05,13.90
2016,10,16,15,06,13.90
2016,10,16,15,07,13.80
2016,10,16,15,08,13.80
2016,10,16,15,09,13.80
2016,10,16,15,10,13.80
2016,10,16,15,11,13.80
2016,10,16,15,12,13.80
2016,10,16,15,13,13.80
2016,10,16,15,14,13.80
2016,10,16,15,15,13.70
2016,10,16,15,16,13.70
2016,10,16,15,17,13.70
2016,10,16,15,18,13.60
2016,10,16,15,19,13.50
2016,10,16,15,20,13.50
2016,10,16,15,21,13.40
2016,10,16,15,22,13.30
2016,10,16,15,23,13.20
2016,10,16,15,24,13.20
2016,10,16,15,25,13.20
2016,10,16,15,26,13.20
2016,10,16,15,27,13.20
2016,10,16,15,28,13.20
2016,10,16,15,29,13.10
2016,10,16,15,30,13.10
2016,10,16,15,31,13.10
2016,10,16,15,32,13.20
2016,10,16,15,33,13.20
2016,10,16,15,34,13.20
2016,10,16,15,35,13.20
2016,10,16,15,36,13.10
2016,10,16,15,37,13.00
2016,10,16,15,38,12.90
2016,10,16,15,39,12.80
2016,10,16,15,40,12.70
2016,10,16,15,41,12.60
2016,10,16,15,42,12.50
2016,10,16,15,43,12.40
2016,10,16,15,44,12.30
2016,10,16,15,45,12.20
2016,10,16,15,46,12.10
2016,10,16,15,47,12.10
2016,10,16,15,48,12.00
2016,10,16,15,49,12.00
2016,10,16,15,50,11.90
2016,10,16,15,51,11.90
2016,10,16,15,52,11.90
2016,10,16,15,53,11.80
2016,10,16,15,54,11.80
2016,10,16,15,55,11.80
2016,10,16,15,56,11.80
2016,10,16,15,57,11.80
2016,10,16,15,58,11.80
2016,10,16,15,59,11.90
2016,10,16,16,00,11.90
2016,10,16,16,01,11.90
2016,10,16,16,02,11.90
2016,10,16,16,03,11.90
2016,10,16,16,04,11.90
2016,10,16,16,05,11.90
2016,10,16,16,06,11.90
2016,10,16,16,07,12.00
2016,10,16,16,08,12.00
2016,10,16,16,09,12.00
2016,10,16,16,10,12.00
2016,10,16,16,11,12.00
2016,10,16,16,12,12.00
2016,10,16,16,13,12.10
2016,10,16,16,14,12.00
2016,10,16,16,15,12.00
2016,10,16,16,16,12.00
2016,10,16,16,17,11.90
2016,10,16,16,18,11.80
2016,10,16,16,19,11.80
2016,10,16,16,20,11.70
2016,10,16,16,21,11.70
2016,10,16,16,22,11.70
2016,10,16,16,23,11.60
2016,10,16,16,24,11.60
2016,10,16,16,25,11.60
2016,10,16,16,26,11.50
2016,10,16,16,27,11.50
2016,10,16,16,28,11.40
2016,10,16,16,29,11.40
2016,10,16,16,30,11.30
2016,10,16,16,31,11.30
2016,10,16,16,32,11.30
2016,10,16,16,33,11.30
2016,10,16,16,34,11.30
2016,10,16,16,35,11.30
2016,10,16,16,36,11.30
2016,10,16,16,37,11.30
2016,10,16,16,38,11.30
2016,10,16,16,39,11.30
2016,10,16,16,40,11.30
2016,10,16,16,41,11.30
2016,10,16,16,42,11.30
2016,10,16,16,43,11.20
2016,10,16,16,44,11.20
2016,10,16,16,45,11.20
2016,10,16,16,46,11.20
2016,10,16,16,47,11.10
2016,10,16,16,48,11.10
2016,10,16,16,49,11.10
2016,10,16,16,50,11.10
2016,10,16,16,51,11.00
2016,10,16,16,52,11.00
2016,10,16,16,53,11.00
2016,10,16,16,54,11.00
2016,10,16,16,55,10.90
2016,10,16,16,56,10.90
2016,10,16,16,57,10.90
2016,10,16,16,58,10.90
2016,10,16,16,59,10.90
2016,10,16,17,00,10.90
2016,10,16,17,01,10.90
2016,10,16,17,02,10.90
2016,10,16,17,03,10.90
2016,10,16,17,04,10.90
2016,10,16,17,05,10.80
2016,10,16,17,06,10.80
2016,10,16,17,07,10.80
2016,10,16,17,08,10.80
2016,10,16,17,09,10.80
2016,10,16,17,10,10.80
2016,10,16,17,11,10.80
2016,10,16,17,12,10.80
2016,10,16,17,13,10.80
2016,10,16,17,14,10.80
2016,10,16,17,15,10.80
2016,10,16,17,16,10.80
2016,10,16,17,17,10.90
2016,10,16,17,18,10.90
2016,10,16,17,19,10.90
2016,10,16,17,20,10.90
2016,10,16,17,21,10.90
2016,10,16,17,22,10.90
2016,10,16,17,23,10.90
2016,10,16,17,24,10.90
2016,10,16,17,25,10.90
2016,10,16,17,26,10.90
2016,10,16,17,27,10.90
2016,10,16,17,28,10.90